Location: Groß Eilstorf
(52.8200°N, 9.4552°E)
Time: 15:50:13
(UTC+00:00)

Cosmos 1437 Rocket - Pass Details

Date: 15 May 2026
Orbit: 439 x 476 km, 81.2° (Epoch: 10 June)

Event Time Altitude Azimuth Distance (km) Brightness Sun altitude
Exits shadow 20:03:43 - 169° (S) 2,087 5.3 -6.7°
Reaches altitude 10° 20:04:53 10° 164° (SSE) 1,625 4.7 -6.9°
Maximum altitude 20:08:11 37° 96° (E) 748 3.1 -7.2°
Drops below altitude 10° 20:11:33 10° 27° (NNE) 1,655 5.5 -7.6°
Sets 20:13:46 0° 20° (NNE) 2,544 6.6 -7.8°
